Terminal Aerodrome Forecast
Issued by NWS Charleston, WV

Current Version | Previous Version | Graphics & Text | Print | Product List | Glossary On
Versions: 1 2 3 4 5 6 7 8 9 10 11 12 13 14 15 16 17 18 19 20 21 22 23 24
000
FTUS41 KRLX 051100
TAFEKN
TAF
KEKN 051121Z 0512/0612 32007KT 1 1/2SM -SN OVC015
     FM051300 32008KT 1SM -SN OVC008
     FM051400 34007KT 3/4SM -SN BR OVC008
     FM051600 32005KT 2SM -SN OVC008
     FM052000 32008KT 4SM -SN OVC010
     FM060000 32004KT P6SM BKN020=

USA.gov is the U.S. government's official web portal to all federal, state and local government web resources and services.